| time (UTC) | temp F | wind direction | speed MPH | gust MPH | rain 1hr in | rain 24hr in | rain mn in | humidity % | barometer mb |
| 20260505061543 | 72 | 187 | 2.0 | 6.0 | 0.00 | 0.00 | 0.00 | 87 | 1011.7 |
| 20260505060038 | 72 | 157 | 2.0 | 8.0 | 0.00 | 0.00 | 0.00 | 87 | 1011.7 |
| 20260505054540 | 72 | 176 | 1.0 | 6.0 | 0.00 | 0.00 | 0.00 | 87 | 1011.9 |
| 20260505053037 | 72 | 155 | 1.0 | 6.0 | 0.00 | 0.00 | 0.00 | 87 | 1011.8 |
| 20260505051536 | 72 | 175 | 1.0 | 6.0 | 0.00 | 0.00 | 0.00 | 86 | 1011.9 |
| 20260505041548 | 72 | 167 | 2.0 | 6.0 | 0.00 | 0.00 | 0.00 | 86 | 1012.3 |
| 20260505040039 | 72 | 155 | 1.0 | 5.0 | 0.00 | 0.00 | 0.00 | 86 | 1012.5 |
| 20260505034532 | 72 | 152 | 2.0 | 5.0 | 0.00 | 0.00 | 0.00 | 85 | 1012.5 |
| 20260505033031 | 72 | 150 | 2.0 | 6.0 | 0.00 | 0.00 | 0.00 | 85 | 1012.5 |
| 20260505031539 | 72 | 144 | 2.0 | 5.0 | 0.00 | 0.00 | 0.00 | 84 | 1012.5 |
| 20260505030029 | 72 | 168 | 2.0 | 6.0 | 0.00 | 0.00 | 0.00 | 84 | 1012.5 |
| 20260505024530 | 72 | 190 | 3.0 | 7.0 | 0.00 | 0.00 | 0.00 | 83 | 1012.5 |
| 20260505023028 | 73 | 159 | 3.0 | 6.0 | 0.00 | 0.00 | 0.00 | 82 | 1012.6 |
| 20260505021527 | 73 | 150 | 2.0 | 7.0 | 0.00 | 0.00 | 0.00 | 82 | 1012.4 |
| 20260505020027 | 73 | 138 | 2.0 | 7.0 | 0.00 | 0.00 | 0.00 | 82 | 1012.4 |
| 20260505014533 | 73 | 140 | 3.0 | 9.0 | 0.00 | 0.00 | 0.00 | 81 | 1012.3 |
| 20260505013025 | 73 | 143 | 3.0 | 8.0 | 0.00 | 0.00 | 0.00 | 80 | 1012.3 |
| 20260505011524 | 74 | 167 | 4.0 | 6.0 | 0.00 | 0.00 | 0.00 | 80 | 1012.2 |
| 20260505010026 | 74 | 138 | 4.0 | 9.0 | 0.00 | 0.00 | 0.00 | 79 | 1012.1 |
| 20260505004527 | 74 | 159 | 5.0 | 14.0 | 0.00 | 0.00 | 0.00 | 79 | 1011.9 |
| 20260505003022 | 75 | 161 | 4.0 | 14.0 | 0.00 | 0.00 | 0.00 | 77 | 1012.0 |
| 20260505001520 | 75 | 157 | 5.0 | 13.0 | 0.00 | 0.00 | 0.00 | 76 | 1012.0 |
| 20260505000020 | 76 | 95 | 6.0 | 13.0 | 0.00 | 0.00 | 0.00 | 75 | 1012.2 |
| 20260504234519 | 76 | 180 | 6.0 | 11.0 | 0.00 | 0.00 | 0.00 | 76 | 1012.2 |
| 20260504233017 | 76 | 181 | 4.0 | 10.0 | 0.00 | 0.00 | 0.00 | 74 | 1012.3 |
| 20260504231514 | 76 | 138 | 6.0 | 15.0 | 0.00 | 0.00 | 0.00 | 75 | 1012.6 |
| 20260504230014 | 76 | 169 | 5.0 | 12.0 | 0.00 | 0.00 | 0.00 | 75 | 1012.7 |
| 20260504224518 | 76 | 142 | 7.0 | 11.0 | 0.00 | 0.00 | 0.00 | 74 | 1012.7 |
| 20260504223022 | 76 | 144 | 3.0 | 9.0 | 0.00 | 0.00 | 0.00 | 74 | 1013.1 |
| 20260504221509 | 76 | 139 | 5.0 | 10.0 | 0.00 | 0.00 | 0.00 | 75 | 1013.3 |
| 20260504220015 | 76 | 150 | 5.0 | 11.0 | 0.00 | 0.00 | 0.00 | 74 | 1013.3 |
| 20260504214507 | 77 | 137 | 5.0 | 12.0 | 0.00 | 0.00 | 0.00 | 73 | 1013.5 |
| 20260504213019 | 77 | 146 | 5.0 | 12.0 | 0.00 | 0.00 | 0.00 | 71 | 1013.5 |
| 20260504211506 | 77 | 135 | 3.0 | 13.0 | 0.00 | 0.00 | 0.00 | 72 | 1013.6 |
| 20260504210003 | 77 | 130 | 5.0 | 12.0 | 0.00 | 0.00 | 0.00 | 71 | 1013.9 |
| 20260504204503 | 78 | 136 | 5.0 | 11.0 | 0.00 | 0.00 | 0.00 | 69 | 1014.2 |
| 20260504203111 | 78 | 190 | 3.0 | 11.0 | 0.00 | 0.00 | 0.00 | 70 | 1014.2 |
| 20260504201601 | 79 | 163 | 5.0 | 10.0 | 0.00 | 0.00 | 0.00 | 69 | 1014.4 |
| 20260504200118 | 79 | 155 | 4.0 | 11.0 | 0.00 | 0.00 | 0.00 | 68 | 1014.6 |
| 20260504194601 | 79 | 152 | 4.0 | 11.0 | 0.00 | 0.00 | 0.00 | 67 | 1014.7 |
| 20260504193055 | 78 | 134 | 5.0 | 10.0 | 0.00 | 0.00 | 0.00 | 68 | 1015.0 |
| 20260504191557 | 78 | 169 | 4.0 | 13.0 | 0.00 | 0.00 | 0.00 | 67 | 1015.2 |
| 20260504190051 | 78 | 148 | 4.0 | 12.0 | 0.00 | 0.00 | 0.00 | 66 | 1015.3 |
| 20260504184550 | 78 | 163 | 6.0 | 13.0 | 0.00 | 0.00 | 0.00 | 66 | 1015.2 |
| 20260504183049 | 78 | 175 | 3.0 | 10.0 | 0.00 | 0.00 | 0.00 | 66 | 1015.3 |
| 20260504181547 | 78 | 182 | 5.0 | 13.0 | 0.00 | 0.00 | 0.00 | 66 | 1015.7 |
| 20260504180043 | 78 | 159 | 6.0 | 14.0 | 0.00 | 0.00 | 0.00 | 67 | 1015.8 |
| 20260504174543 | 77 | 136 | 5.0 | 11.0 | 0.00 | 0.00 | 0.00 | 67 | 1015.8 |
| 20260504173040 | 77 | 212 | 5.0 | 10.0 | 0.00 | 0.00 | 0.00 | 67 | 1016.1 |
| 20260504171545 | 77 | 153 | 6.0 | 10.0 | 0.00 | 0.00 | 0.00 | 67 | 1016.2 |
| 20260504081516 | 65 | 161 | 0.0 | 3.0 | 0.00 | 0.00 | 0.00 | 74 | 1017.4 |